Flag for U.S.A. Weather past 2 weeks in Austin, Texas, U.S.A.

Now
82 °F

Passing clouds.


Feels Like: 87 °F
Forecast: 75 / 95 °F
Wind: 10 mph from South

Location: Camp Mabry / Austin City

Current Time: Sep 4, 2015 at 11:57:59 PM

Latest Report: Sep 4, 2015 at 10:51 PM


Visibility: 10 mi

Pressure: 29.91 "Hg

Humidity: 72%

Dew point: 72 °F

Location of AustinLocation

Historic Weather in Austin — Graph

°F

Austin temperature yesterday

Maximum temperature yesterday: 92 °F (at 1:51 PM)
Minimum temperature yesterday: 73 °F (at 6:51 AM)
Average temperature yesterday: 82 °F

Past Weeks' High & Low Weather Summary

 TemperatureHumidityPressure
High100 °F (Aug 23, 3:51 PM)94% (Aug 21, 12:51 AM)30.11 "Hg (Aug 21, 12:51 AM)
Low71 °F (Aug 29, 6:51 AM)25% (Aug 27, 4:51 PM)29.80 "Hg (Sep 3, 6:51 PM)
Average84 °F61%29.96 "Hg
* Reported Aug 20 9:51 PM — Sep 4 9:51 PM, Austin, Weather by CustomWeather, © 2015

Note: Actual official high and low records may vary slightly from our data, if they occured in-between our weather recording intervals... More about our weather records

Advertising

Austin weather history for previous 24 hours

 ConditionsComfort  
Time TempWeatherWind HumidityBarometerVisibility
9:51 PM
Fri, Sep 4
84 °FPassing clouds.5 mph65%29.91 "Hg10 mi
8:51 PM86 °FPassing clouds.9 mph59%29.88 "Hg10 mi
7:51 PM89 °FPassing clouds.7 mph53%29.86 "Hg10 mi
6:51 PM91 °FPartly sunny.10 mph50%29.85 "Hg10 mi
5:51 PM93 °FScattered clouds.10 mph49%29.84 "Hg10 mi
4:51 PM98 °FPassing clouds.8 mph36%29.83 "Hg10 mi
3:51 PM97 °FPassing clouds.5 mph36%29.84 "Hg10 mi
2:51 PM98 °FScattered clouds.6 mph36%29.86 "Hg10 mi
1:51 PM95 °FScattered clouds.6 mph41%29.88 "Hg10 mi
12:51 PM92 °FPartly sunny.7 mph47%29.90 "Hg10 mi
11:51 AM92 °FScattered clouds.6 mph49%29.92 "Hg10 mi
10:51 AM88 °FScattered clouds.7 mph59%29.92 "Hg10 mi
9:51 AM84 °FPartly sunny.6 mph70%29.93 "Hg10 mi
8:51 AM80 °FPartly sunny.5 mph81%29.93 "Hg10 mi
8:01 AM77 °FPassing clouds.3 mph90%29.95 "Hg10 mi
6:51 AM77 °FOvercast.5 mph88%29.89 "Hg10 mi
5:51 AM77 °FMostly cloudy.No wind88%29.88 "Hg10 mi
4:51 AM77 °FMostly cloudy.No wind88%29.88 "Hg10 mi
3:51 AM77 °FPassing clouds.3 mph88%29.88 "Hg10 mi
2:51 AM78 °FPassing clouds.5 mph84%29.88 "Hg10 mi
1:51 AM79 °FMostly cloudy.6 mph79%29.88 "Hg10 mi
12:59 AM79 °FPassing clouds.6 mph77%29.92 "Hg10 mi
11:51 PM
Thu, Sep 3
80 °FClear.7 mph74%29.87 "Hg10 mi
Weather by CustomWeather, © 2015

See weather overviewHow to use our weather pages